Location: Unspecified
(41.1637°N, 24.2901°E)
Time: 13:00:59
(UTC+01:00)

ISS - Pass Details

Date: 30 November 2021
Orbit: 417 x 423 km, 51.6° (Epoch: 29 November)

Event Time Altitude Azimuth Distance (km) Brightness Sun altitude
Rises 17:56:23 0° 309° (NW) 2,380 0.7 -22.3°
Reaches altitude 10° 17:58:55 10° 328° (NNW) 1,513 -0.7 -22.8°
Enters shadow 17:59:38 14° 338° (NNW) 1,314 -1.1 -22.9°
